Location: Cadenet
(43.7345°N, 5.3750°E)
Time: 05:44:38
(UTC+00:00)

Lacrosse 5 - Pass Details

Date: 18 February 2020
Orbit: 715 x 724 km, 57.0° (Epoch: 21 March)

Event Time Altitude Azimuth Distance (km) Brightness Sun altitude
Exits shadow 03:47:39 38° 27° (NNE) 1,096 3.0 -30.5°
Maximum altitude 03:47:46 38° 31° (NNE) 1,095 3.0 -30.5°
Drops below altitude 10° 03:52:30 10° 99° (E) 2,206 5.2 -29.7°
Sets 03:55:02 0° 107° (ESE) 3,126 6.0 -29.2°
